Back to catalog

HIMAWARI 6

AliveWeatherGEO
NORAD 28622·PAYLOAD·🇯🇵 Japan

Launched Feb 26, 2005 from Tanegashima Space Center

Loading…

TLE

FreshSource: Space-Track

Epoch: Sep 14, 2026, 05:12 UTC

1 28622U 05006A   26257.21692404 -.00000217  00000-0  00000-0 0  9992
2 28622   9.5922  57.5317 0010718 279.4552  85.2560  0.98916075 44906

Track HIMAWARI 6 in real time with AllMySat

Download on the App Store